Gander International

Airport
ICAO code: 
CYQX
IATA Code: 
YQX
Summary
ICAO Region: 
NAM
Territory: 
Location: 
Gander, Newfoundland,
Serving: 
Gander
Elevation: 
496 ft
Coordinates: 
Aerial View: 
48° 56' 12.998" N, 54° 34' 5.002" W
Metar
Observation
CYQX 191800Z 26012G19KT 20SM -SHRA BKN027 OVC059 09/04 A2955 RMK SC7SC1 SLP012
Station
Gander Int. Airport, Nfld.
Date/Time
2022-05-19 18:00:00
Wind direction
260°
Wind speed
12 kts
Lowest cloud amount
broken clouds
Temperature
9°C
Dew point
4°C
Humidity
70%
Weather condition
light showers rain

Description

International airport serving Gander, Newfoundland.

Climatology

Humid Continental climate (Köppen climate classification Dfb) - Variable weather patterns and a large seasonal temperature variance. Summers are often warm and humid with frequent thunderstorms and winters can be very cold with frequent snowfall and persistent snow cover.

The separate article climate Newfoundland contains more detail on the climate of Newfoundland and associated weather phenomena.

Runways

Designator Length Width Surface Rops
9/27 572 15 ASP Yes/Yes
13/31 2713 61 ASP Yes/Yes
3/21 3109 61 ASP Yes/Yes
Airport map: 
Aerial View: 

SKYbrary Partners:

Safety knowledge contributed by: